This demonstration page uses our WeatherBlox Daily Observations layout. Learn more.

Left ArrowRight Arrow

39.01783, -85.05884

Hourly Observations for September 9, 2018

Temp ( °F °C ) Dew Point ( °F °C ) Humidity (%) Winds ( mph kmh ) Pressure ( in mb ) Visibility ( mi km ) Precip ( " mm )
12:06 am 00:06 Cloudy with Heavy Rain 61 16.1 61 16.1 100 100 ENE 12 19 29.91 1013 2 2 0.19 4.83
12:13 am 00:13 Cloudy with Heavy Rain 61 16.1 61 16.1 100 100 ENE 10 17 29.88 1012 3 5 0.22 5.59
12:18 am 00:18 Cloudy with Heavy Rain 61 16.1 61 16.1 100 100 ENE 14 22 29.88 1012 3 4 0.25 6.35
12:52 am 00:52 Cloudy with Heavy Rain 61 16.1 61 16.1 100 100 NE 10 17 29.87 1011 2 3 0.43 10.92
1:00 am 01:00 Cloudy with Heavy Rain 61 16.1 61 16.1 100 100 ENE 18 30 29.88 1012 2 3 0.10 2.54
1:49 am 01:49 Cloudy with Rain 61 16 61 16 100 100 NE 14 22 29.88 1012 3 5 0.27 6.86
1:52 am 01:52 Cloudy with Light Rain 61 16.1 61 16.1 100 100 NE 15 24 29.86 1011 3 5 0.28 7.11
2:23 am 02:23 Cloudy with Heavy Rain 61 16.1 61 16.1 100 100 NE 12 19 29.88 1012 2 3 0.07 1.78
2:35 am 02:35 Cloudy with Rain 61 16.1 61 16.1 100 100 NE 13 20 29.88 1012 4 6 0.10 2.54
2:52 am 02:52 Cloudy with Light Rain 61 16.1 61 16.1 100 100 NE 14 22 29.85 1011 9 14 0.11 2.79
3:52 am 03:52 Cloudy with Light Rain 60 15.6 60 15.6 100 100 NE 10 17 29.83 1010 5 8 0.14 3.56
4:52 am 04:52 Cloudy 60 15.6 59 15 96 96 NE 15 24 29.82 1010 8 13 0.01 0.25
5:52 am 05:52 Cloudy with Light Rain 59 15 59 15 100 100 NE 12 19 29.82 1010 4 6 0.19 4.83
6:52 am 06:52 Cloudy with Mist and Fog 59 15 58 14.4 96 96 ENE 13 20 29.82 1010 6 10 0.01 0.25
7:52 am 07:52 Cloudy with Light Rain 59 15 58 14.4 96 96 NE 12 19 29.83 1010 3 5 N/A
8:02 am 08:02 Cloudy with Light Rain 59 15 58 14.4 96 96 NE 12 19 29.85 1011 2 3 N/A
8:52 am 08:52 Cloudy with Light Rain 59 15 59 15 100 100 NNE 9 15 29.85 1011 3 4 0.01 0.25
9:52 am 09:52 Cloudy with Light Rain 58 14.4 58 14.4 100 100 NE 13 20 29.85 1011 3 4 0.01 0.25
10:52 am 10:52 Cloudy with Light Rain 59 15 58 14.4 96 96 NE 13 20 29.86 1011 3 4 0.04 1.02
11:30 am 11:30 Cloudy with Light Rain 59 15 58 14.4 96 96 NE 14 22 29.88 1012 10 16 N/A
11:52 am 11:52 Cloudy with Light Rain 59 15 58 14.4 96 96 NE 13 20 29.87 1011 10 16 N/A
12:52 pm 12:52 Cloudy with Light Rain 60 15.6 59 15 96 96 NE 10 17 29.85 1011 5 8 0.01 0.25
1:52 pm 13:52 Cloudy with Mist and Fog 61 16.1 61 16.1 100 100 NE 10 17 29.83 1010 3 5 0.01 0.25
2:52 pm 14:52 Cloudy with Light Rain 62 16.7 61 16.1 96 96 NNE 10 17 29.82 1010 3 5 N/A
3:52 pm 15:52 Cloudy 62 16.7 61 16.1 96 96 NNE 9 15 29.81 1010 10 16 N/A
4:26 pm 16:26 Cloudy with Light Rain 62 16.7 61 16.1 96 96 NE 9 15 29.80 1009 3 5 0.01 0.25
4:52 pm 16:52 Cloudy 62 16.7 61 16.1 96 96 N 9 15 29.80 1009 7 11 0.01 0.25
5:52 pm 17:52 Cloudy with Light Rain 62 16.7 61 16.1 96 96 NNE 9 15 29.80 1009 3 5 0.01 0.25
6:22 pm 18:22 Cloudy with Light Rain 62 16.7 61 16.1 96 96 N 8 13 29.80 1009 2 3 0.01 0.25
6:31 pm 18:31 Cloudy with Light Rain 62 16.7 61 16.1 96 96 N 8 13 29.80 1009 4 6 0.01 0.25
6:52 pm 18:52 Cloudy with Light Rain 62 16.7 61 16.1 96 96 NNE 9 15 29.80 1009 3 4 0.02 0.51
7:41 pm 19:41 Cloudy 62 16.7 62 16.7 100 100 N 6 9 29.80 1009 10 16 N/A
7:52 pm 19:52 Cloudy 62 16.7 62 16.7 100 100 N 8 13 29.80 1009 10 16 N/A
8:52 pm 20:52 Cloudy with Light Rain 61 16.1 61 16.1 100 100 N 6 9 29.82 1010 8 13 N/A
9:52 pm 21:52 Cloudy 61 16.1 61 16.1 100 100 NNW 6 9 29.83 1010 10 16 N/A
10:07 pm 22:07 Cloudy 61 16.1 61 16.1 100 100 NNW 6 9 29.85 1011 10 16 N/A
10:38 pm 22:38 Cloudy 61 16.1 61 16.1 100 100 NW 7 11 29.85 1011 10 16 N/A
10:52 pm 22:52 Cloudy 61 16.1 61 16.1 100 100 NW 7 11 29.84 1010 10 16 N/A
10:58 pm 22:58 Cloudy 61 16.1 61 16.1 100 100 NNW 7 11 29.85 1011 10 16 N/A
11:52 pm 23:52 Cloudy 61 16.1 61 16.1 100 100 NW 6 9 29.85 1011 7 11 N/A

Powered by AerisWeather